Waarnemingen

Advertentie
Mijn weer
Lahr, Duitsland (10805): temperatuur & dauwpunt: 08.08.2018 17:00:00 - 14.08.2018 17:00:00 (CEST)Lahr, Duitsland (10805): temperatuur 5cm & temperatuur -5cm: 08.08.2018 17:00:00 - 14.08.2018 17:00:00 (CEST)Lahr, Duitsland (10805): temperatuur -20cm & temperatuur -100cm: 08.08.2018 17:00:00 - 14.08.2018 17:00:00 (CEST)Lahr, Duitsland (10805): windsnelheid & windstoten: 08.08.2018 17:00:00 - 14.08.2018 17:00:00 (CEST)Lahr, Duitsland (10805): windrichting: 08.08.2018 17:00:00 - 14.08.2018 17:00:00 (CEST)Lahr, Duitsland (10805): luchtdruk: 08.08.2018 17:00:00 - 14.08.2018 17:00:00 (CEST)Lahr, Duitsland (10805): zicht: 08.08.2018 17:00:00 - 14.08.2018 17:00:00 (CEST)Lahr, Duitsland (10805): Zonneschijnduur: 08.08.2018 17:00:00 - 14.08.2018 17:00:00 (CEST)Lahr, Duitsland (10805): neerslag: 08.08.2018 17:00:00 - 14.08.2018 17:00:00 (CEST)
Datum & Tijd tt [°C] td [°C] tt 5cm [°C] tt -5cm [°C] tt -20cm [°C] tt -100cm [°C] ff [km/u] ff [kn] fx [km/u] fx [kn] dd ppp [hPa] vv [km] sd [min] rr [mm]
14.08.2018 17:00:00 24,7 12,0 26,7 28,9 24,0 22,3 8 4 23 13 WNW 1016,3 70 9 0,0
14.08.2018 16:00:00 26,0 12,0 32,4 31,7 23,5 22,4 10 5 19 10 W 1015,9 64 44 0,0
14.08.2018 15:00:00 25,8 11,8 31,2 29,7 23,1 22,4 8 4 18 10 - 1015,9 10 37 0,0
14.08.2018 14:00:00 23,3 12,7 25,6 26,3 22,9 22,4 9 5 19 10 - 1016,3 10 3 0,0
14.08.2018 13:00:00 23,4 12,0 27,7 26,0 22,5 22,4 11 6 23 12 NNW 1016,1 70 22 0,0
14.08.2018 12:00:00 22,2 13,4 24,6 26,0 22,0 22,4 9 5 20 11 WNW 1016,1 70 35 0,0
14.08.2018 11:00:00 21,7 13,7 26,8 24,2 21,7 22,4 8 4 18 10 - 1016,3 10 44 0,0
14.08.2018 10:00:00 20,8 14,9 23,4 21,9 21,6 22,4 5 3 12 7 ZZW 1016,0 70 43 0,0
14.08.2018 09:00:00 19,7 16,2 22,2 20,3 21,6 22,4 4 2 13 7 - 1015,8 10 24 0,4
14.08.2018 08:00:00 17,1 15,8 17,3 18,4 21,7 22,4 4 2 6 3 NO 1015,3 38 14 0,0
14.08.2018 07:00:00 16,1 15,0 14,9 17,9 21,9 22,4 4 2 11 6 ZW 1014,9 50 0 0,0
14.08.2018 06:00:00 16,9 15,5 14,4 18,3 22,1 22,4 5 3 9 5 Z 1014,1 55 0 0,0
14.08.2018 05:00:00 17,8 15,1 17,0 18,7 22,2 22,4 7 4 14 8 ZZW 1013,7 70 0 0,0
14.08.2018 04:00:00 18,0 15,0 17,5 18,9 22,4 22,4 7 4 12 6 Z 1013,6 70 0 0,0
14.08.2018 03:00:00 17,2 15,2 16,2 19,0 22,6 22,4 6 3 10 5 ZZW 1013,5 70 0 0,0
14.08.2018 02:00:00 17,7 15,4 16,9 19,0 22,8 22,4 6 3 12 7 ZZW 1013,5 70 0 0,0
14.08.2018 01:00:00 18,4 15,0 17,2 19,3 23,0 22,4 8 4 16 9 ZZW 1013,1 70 0 0,0
14.08.2018 00:00:00 18,6 14,8 17,5 19,7 23,3 22,4 10 6 16 9 ZZW 1012,6 70 0 0,0
13.08.2018 23:00:00 19,3 15,0 18,2 20,3 23,5 22,5 12 7 26 14 ZZW 1012,0 70 0 0,0
13.08.2018 22:00:00 19,7 17,3 18,7 21,1 23,7 22,5 16 9 27 14 ZZW 1011,7 70 0 0,2
13.08.2018 21:00:00 21,2 16,2 20,1 21,8 23,9 22,5 11 6 19 10 Z 1010,6 70 7 0,0
13.08.2018 20:00:00 22,6 16,7 22,0 22,9 24,0 22,5 11 6 18 10 Z 1009,8 70 14 0,0
13.08.2018 19:00:00 22,5 18,3 21,3 23,6 24,0 22,5 8 4 16 9 ZO 1009,8 70 2 0,0
13.08.2018 18:00:00 22,5 18,1 21,2 24,8 23,9 22,5 13 7 19 10 Z 1010,1 70 14 0,1
13.08.2018 17:00:00 21,8 18,4 21,4 24,9 23,7 22,5 3 2 16 9 W 1010,2 14 2 0,9
13.08.2018 16:00:00 23,1 16,8 26,2 27,2 23,5 22,5 6 4 25 13 WNW 1010,3 68 52 0,0
13.08.2018 15:00:00 20,8 17,9 21,6 23,5 23,3 22,5 15 8 45 25 WNW 1011,1 30 6 0,1
13.08.2018 14:00:00 23,1 16,9 24,8 24,4 23,2 22,5 26 14 35 19 ZZW 1010,9 10 24 0,0
13.08.2018 13:00:00 21,1 17,3 20,5 22,3 23,2 22,5 15 8 29 16 Z 1011,5 10 0 0,0
13.08.2018 12:00:00 19,6 17,5 19,1 21,6 23,3 22,5 15 8 30 16 Z 1012,0 31 0 0,3
13.08.2018 11:00:00 19,5 17,5 19,0 21,5 23,3 22,5 16 9 26 14 ZZW 1012,1 10 0 0,9
13.08.2018 10:00:00 19,9 17,2 19,0 21,3 23,4 22,5 9 5 21 11 ZZO 1011,6 10 0 0,6
13.08.2018 09:00:00 19,8 15,6 17,5 21,3 23,5 22,5 11 6 24 13 Z 1011,6 8 1 0,6
13.08.2018 08:00:00 21,2 12,7 21,8 21,5 23,6 22,5 20 11 34 18 W 1010,5 68 36 0,0
13.08.2018 07:00:00 22,7 11,6 21,3 20,3 23,9 22,5 19 10 29 16 ZZW 1008,4 70 3 0,0
13.08.2018 06:00:00 19,2 11,1 16,2 20,4 24,1 22,5 6 4 23 13 ZZO 1008,7 70 0 0,0
13.08.2018 05:00:00 17,9 11,3 16,6 20,5 24,4 22,5 11 6 17 9 Z 1009,6 70 0 0,0
13.08.2018 04:00:00 16,7 11,9 14,5 20,9 24,7 22,5 7 4 10 5 ZW 1009,6 70 0 0,0
13.08.2018 03:00:00 16,5 12,3 13,6 21,3 25,1 22,5 4 2 5 3 W 1010,0 67 0 0,0
13.08.2018 02:00:00 17,3 12,0 13,6 21,9 25,5 22,6 2 1 5 3 NO 1010,5 70 0 0,0
13.08.2018 01:00:00 18,5 11,7 15,7 22,7 25,8 22,6 5 3 6 4 NW 1011,1 70 0 0,0
13.08.2018 00:00:00 19,9 11,5 16,0 23,7 26,2 22,6 3 2 11 6 Z 1011,4 70 0 0,0
12.08.2018 23:00:00 22,3 11,9 19,3 24,8 26,5 22,6 8 4 14 7 WZW 1011,1 70 0 0,0
12.08.2018 22:00:00 23,8 11,2 18,9 26,1 26,8 22,6 4 2 12 7 Z 1010,9 70 0 0,0
12.08.2018 21:00:00 27,2 9,9 24,3 28,1 27,0 22,6 6 4 16 9 Z 1010,6 70 27 0,0
12.08.2018 20:00:00 29,9 9,7 28,7 30,3 27,0 22,6 7 4 22 12 ZZW 1010,2 70 60 0,0
12.08.2018 19:00:00 30,5 8,3 31,2 32,2 26,8 22,6 6 3 20 11 ZZW 1010,8 65 60 0,0
12.08.2018 18:00:00 30,5 7,8 32,9 33,7 26,5 22,6 6 4 19 11 WNW 1011,6 69 60 0,0
12.08.2018 17:00:00 30,2 7,9 34,0 34,3 26,0 22,6 10 5 24 13 ZW 1012,3 45 60 0,0
12.08.2018 16:00:00 29,1 8,0 34,7 34,4 25,4 22,6 12 6 24 13 ZW 1013,4 54 60 0,0
12.08.2018 15:00:00 29,1 9,5 34,2 34,3 24,6 22,6 10 5 28 15 ZZW 1014,2 49 60 0,0
12.08.2018 14:00:00 27,1 9,1 34,4 33,1 23,9 22,6 9 5 19 10 ZZW 1015,1 51 60 0,0
12.08.2018 13:00:00 25,9 8,8 32,7 31,1 23,3 22,6 9 5 18 10 W 1016,1 47 60 0,0
12.08.2018 12:00:00 24,0 9,2 29,7 28,6 22,7 22,6 6 3 13 7 WZW 1017,1 54 60 0,0
12.08.2018 11:00:00 22,2 9,4 26,7 25,6 22,3 22,6 5 3 9 5 ZZO 1017,6 50 60 0,0
12.08.2018 10:00:00 19,8 8,9 24,7 22,4 22,2 22,6 4 2 6 3 W 1018,1 60 60 0,0
12.08.2018 09:00:00 17,1 8,8 21,4 19,5 22,3 22,7 4 2 7 4 NW 1018,5 64 60 0,0
12.08.2018 08:00:00 14,2 8,9 15,2 17,5 22,5 22,7 2 1 5 3 ZO 1019,1 49 60 0,0
12.08.2018 07:00:00 10,5 8,7 9,2 16,9 22,9 22,7 5 3 8 5 NNO 1019,7 38 9 0,0
12.08.2018 06:00:00 10,2 8,5 8,0 17,3 23,2 22,7 4 2 7 4 NNO 1019,9 37 0 0,0
12.08.2018 05:00:00 10,6 8,7 7,7 17,8 23,6 22,7 4 2 5 3 NNO 1020,3 50 0 0,0
12.08.2018 04:00:00 11,1 8,7 9,7 18,4 24,0 22,7 5 3 8 4 NO 1020,9 54 0 0,0
12.08.2018 03:00:00 13,1 9,5 9,1 19,1 24,4 22,7 4 2 5 3 W 1021,2 69 0 0,0
12.08.2018 02:00:00 13,2 9,2 9,7 19,8 24,8 22,7 3 2 5 3 N 1021,6 65 0 0,0
12.08.2018 01:00:00 14,2 9,2 10,2 20,7 25,2 22,7 0 0 3 2 N 1022,0 70 0 0,0
12.08.2018 00:00:00 15,1 9,1 11,4 21,6 25,6 22,7 3 1 6 4 NNO 1022,1 70 0 0,0
11.08.2018 23:00:00 16,7 9,3 13,1 22,7 26,0 22,7 6 4 10 5 NNO 1022,1 70 0 0,0
11.08.2018 22:00:00 17,7 9,3 14,2 24,1 26,3 22,7 6 3 10 6 NO 1022,1 70 0 0,0
11.08.2018 21:00:00 19,8 9,5 17,4 25,9 26,6 22,7 8 4 11 6 NNO 1021,6 70 4 0,0
11.08.2018 20:00:00 22,5 8,6 21,2 28,1 26,7 22,7 10 6 20 11 N 1021,3 70 55 0,0
11.08.2018 19:00:00 24,9 8,2 25,9 30,3 26,6 22,7 12 7 21 12 NNW 1021,3 70 60 0,0
11.08.2018 18:00:00 25,4 7,3 28,4 32,0 26,3 22,8 9 5 27 14 W 1021,4 70 60 0,0
11.08.2018 17:00:00 25,7 7,7 30,0 33,0 25,9 22,8 13 7 22 12 NNW 1021,9 55 58 0,0
11.08.2018 16:00:00 26,4 9,3 32,0 32,9 25,3 22,8 10 6 24 13 WNW 1022,2 67 55 0,0
11.08.2018 15:00:00 25,0 8,0 31,9 32,5 24,7 22,8 16 8 54 29 WZW 1022,8 53 56 0,0
11.08.2018 14:00:00 25,0 8,4 32,5 31,1 24,2 22,8 13 7 29 16 WNW 1023,2 32 49 0,0
11.08.2018 13:00:00 22,7 8,3 27,5 29,8 23,6 22,8 17 9 29 16 W 1024,0 47 52 0,0
11.08.2018 12:00:00 23,1 9,0 28,3 27,6 23,2 22,8 16 9 31 17 W 1024,1 57 60 0,0
11.08.2018 11:00:00 22,1 9,2 26,7 24,8 22,9 22,8 13 7 24 13 ZZW 1024,5 35 59 0,0
11.08.2018 10:00:00 19,7 9,5 23,2 21,3 22,9 22,8 13 7 21 11 ZZW 1025,0 70 20 0,0
11.08.2018 09:00:00 17,9 10,2 18,3 20,4 23,0 22,8 12 6 17 9 ZZW 1025,0 70 17 0,0
11.08.2018 08:00:00 16,4 9,7 16,4 19,3 23,2 22,8 11 6 17 9 ZZW 1025,1 70 9 0,0
11.08.2018 07:00:00 15,6 9,5 15,0 18,9 23,5 22,8 8 5 13 7 Z 1024,7 70 7 0,0
11.08.2018 06:00:00 13,3 10,3 12,3 18,8 23,8 22,8 6 3 9 5 ZW 1024,6 70 0 0,0
11.08.2018 05:00:00 11,9 9,5 10,8 18,8 24,2 22,8 3 2 5 3 NW 1024,4 70 0 0,0
11.08.2018 04:00:00 12,8 9,8 9,7 19,4 24,5 22,8 3 1 10 5 ZW 1024,2 70 0 0,0
11.08.2018 03:00:00 14,2 10,5 12,3 20,0 24,9 22,8 6 3 10 5 ZW 1024,2 70 0 0,0
11.08.2018 02:00:00 14,4 10,9 11,0 20,9 25,3 22,8 3 2 5 3 ZO 1024,0 69 0 0,0
11.08.2018 01:00:00 15,4 10,9 13,0 21,7 25,7 22,8 3 1 6 3 NNO 1023,9 70 0 0,0
11.08.2018 00:00:00 15,7 11,0 13,6 22,3 26,1 22,8 2 1 5 3 WNW 1023,6 70 0 0,0
10.08.2018 23:00:00 18,6 9,8 14,4 23,4 26,5 22,8 2 1 9 5 N 1023,1 70 0 0,0
10.08.2018 22:00:00 19,9 10,3 16,2 24,8 26,8 22,8 6 4 11 6 NNW 1022,7 70 0 0,0
10.08.2018 21:00:00 20,4 10,1 17,1 26,5 27,1 22,8 2 1 8 4 N 1022,2 70 0 0,0
10.08.2018 20:00:00 23,8 9,1 21,9 28,8 27,1 22,8 4 2 15 8 W 1021,7 70 46 0,0
10.08.2018 19:00:00 25,0 8,4 26,5 30,8 27,0 22,8 9 5 23 13 WZW 1021,7 10 59 0,0
10.08.2018 18:00:00 25,1 8,7 28,1 32,4 26,8 22,9 8 4 22 12 W 1022,1 10 60 0,0
10.08.2018 17:00:00 25,3 8,6 30,5 33,3 26,3 22,9 7 4 26 14 NW 1022,5 51 60 0,0
10.08.2018 16:00:00 25,8 8,8 31,6 33,4 25,9 22,9 13 7 30 16 W 1022,9 48 59 0,0
10.08.2018 15:00:00 24,1 7,6 29,3 32,8 25,3 22,9 6 3 23 12 W 1023,6 70 47 0,0
10.08.2018 14:00:00 24,1 10,1 29,4 31,5 24,8 22,9 9 5 22 12 Z 1023,9 65 49 0,0
10.08.2018 13:00:00 22,5 8,7 28,6 30,6 24,3 22,9 10 5 21 12 ZW 1024,4 36 56 0,0
10.08.2018 12:00:00 21,7 10,6 27,2 28,7 23,9 22,9 11 6 21 11 Z 1024,7 30 60 0,0
10.08.2018 11:00:00 20,3 10,9 24,2 25,8 23,6 22,9 13 7 24 13 Z 1025,1 36 60 0,0
10.08.2018 10:00:00 18,9 10,7 21,7 23,8 23,5 22,9 10 5 17 9 ZW 1025,2 48 59 0,0
10.08.2018 09:00:00 17,9 11,7 20,8 21,2 23,6 22,9 10 5 16 8 ZW 1025,3 48 60 0,0
10.08.2018 08:00:00 17,0 11,5 18,2 19,1 23,9 22,9 4 2 8 4 Z 1024,9 70 54 0,0
10.08.2018 07:00:00 14,0 10,6 11,2 18,5 24,3 22,9 4 2 7 4 ZZW 1024,5 70 1 0,0
10.08.2018 06:00:00 14,7 11,2 11,4 19,3 24,7 22,8 3 1 16 9 ZZW 1023,7 70 0 0,0
10.08.2018 05:00:00 15,7 11,5 14,4 20,1 25,1 22,8 10 5 16 9 NW 1023,3 70 0 0,0
10.08.2018 04:00:00 16,3 11,4 15,2 20,8 25,5 22,8 11 6 30 16 NW 1022,9 70 0 0,0
10.08.2018 03:00:00 17,3 11,3 16,0 21,7 25,8 22,8 16 8 39 21 W 1022,4 70 0 0,0
10.08.2018 02:00:00 19,2 11,6 18,7 22,7 26,2 22,8 29 16 43 23 W 1021,3 70 0 0,0
10.08.2018 01:00:00 20,3 13,3 20,0 23,3 26,5 22,8 27 14 40 22 W 1020,1 70 0 0,0
10.08.2018 00:00:00 20,7 14,4 20,0 23,9 26,8 22,8 16 8 26 14 W 1019,0 70 0 0,0
09.08.2018 23:00:00 21,8 14,8 20,8 24,4 27,2 22,8 14 8 22 12 Z 1017,5 70 0 0,0
09.08.2018 22:00:00 22,0 13,9 20,3 25,5 27,5 22,8 7 4 23 12 WZW 1017,2 70 0 0,0
09.08.2018 21:00:00 23,9 13,9 23,5 26,7 27,8 22,8 14 8 29 16 ZZW 1016,5 70 0 0,0
09.08.2018 20:00:00 24,4 14,5 24,3 27,8 28,0 22,8 19 11 34 18 W 1015,6 70 7 0,0
09.08.2018 19:00:00 24,9 15,7 25,3 29,2 28,1 22,8 22 12 43 23 Z 1014,3 57 13 0,0
09.08.2018 18:00:00 26,1 14,7 27,1 30,0 28,1 22,8 24 13 55 30 ZZW 1013,2 43 0 0,0
09.08.2018 17:00:00 27,0 14,6 28,1 31,7 28,1 22,8 24 13 41 22 ZZW 1013,3 70 26 0,0
09.08.2018 16:00:00 25,5 16,8 27,8 30,8 28,1 22,8 21 12 35 19 Z 1013,3 38 30 0,0
09.08.2018 15:00:00 21,9 18,6 21,6 30,6 27,9 22,8 16 9 64 34 ZW 1013,8 10 2 0,2
09.08.2018 14:00:00 30,3 17,6 32,2 36,0 27,2 22,8 22 12 36 19 WZW 1010,5 10 46 0,0
09.08.2018 13:00:00 30,7 16,4 36,0 36,0 26,4 22,8 9 5 15 8 WZW 1010,0 35 60 0,0
09.08.2018 12:00:00 29,3 17,1 33,6 33,2 25,7 22,8 4 2 10 5 ZZW 1010,7 37 60 0,0
09.08.2018 11:00:00 26,6 16,8 31,4 29,8 25,3 22,8 8 4 18 10 WZW 1011,9 10 60 0,0
09.08.2018 10:00:00 24,5 17,0 28,9 26,8 25,1 22,8 7 4 11 6 ZW 1012,0 32 60 0,0
09.08.2018 09:00:00 23,0 17,1 26,3 23,9 25,1 22,8 7 4 10 6 W 1012,3 30 31 0,0
09.08.2018 08:00:00 21,6 17,3 22,9 22,8 25,3 22,8 4 2 10 5 - 1012,7 10 18 0,0
09.08.2018 07:00:00 20,0 16,7 20,1 22,1 25,6 22,8 9 5 16 9 W 1013,2 27 9 0,0
09.08.2018 06:00:00 19,5 16,1 17,7 22,0 25,9 22,8 7 4 19 10 OZO 1013,0 29 0 0,0
09.08.2018 05:00:00 19,9 15,9 19,1 22,4 26,3 22,8 13 7 21 12 ZZW 1013,9 30 0 0,0
09.08.2018 04:00:00 19,2 16,2 17,7 22,6 26,7 22,8 8 4 10 5 WZW 1013,2 26 0 0,0
09.08.2018 03:00:00 19,9 16,2 17,9 23,3 27,1 22,8 4 2 8 4 Z 1013,8 35 0 0,0
09.08.2018 02:00:00 19,8 16,4 17,2 23,9 27,5 22,8 2 1 5 3 O 1014,1 32 0 0,0
09.08.2018 01:00:00 20,2 16,4 18,4 24,8 27,9 22,8 3 2 7 4 WZW 1014,3 27 0 0,0
09.08.2018 00:00:00 22,5 16,0 20,7 25,7 28,3 22,8 7 4 9 5 Z 1014,3 40 0 0,0
08.08.2018 23:00:00 23,0 17,0 21,0 26,8 28,7 22,8 4 2 12 6 WZW 1014,2 31 0 0,0
08.08.2018 22:00:00 23,8 16,7 22,4 28,0 29,0 22,8 10 6 16 9 NNO 1014,1 34 0 0,0
08.08.2018 21:00:00 26,0 16,7 25,0 29,5 29,3 22,8 9 5 23 12 NO 1013,5 42 2 0,0
08.08.2018 20:00:00 28,2 16,1 27,7 31,3 29,4 22,8 18 10 27 14 N 1013,0 47 33 0,0
08.08.2018 19:00:00 28,6 16,9 28,8 33,2 29,3 22,8 13 7 22 12 NO 1012,6 44 43 0,0
08.08.2018 18:00:00 29,9 17,1 31,0 34,6 29,0 22,8 14 7 27 15 NNO 1012,5 41 48 0,0
08.08.2018 17:00:00 30,1 17,0 33,0 36,0 28,7 22,8 11 6 22 12 N 1012,8 35 59 0,0

tt = temperatuur
td = dauwpunt
tt 5cm = temperatuur 5cm
tt -5cm = temperatuur -5cm
tt -20cm = temperatuur -20cm
tt -100cm = temperatuur -100cm
ff = windsnelheid
fx = windstoten
dd = windrichting
ppp = luchtdruk
vv = zicht
sd = Zonneschijnduur
rr = neerslag

Weerstations in de omgeving